Vertical_Velocity
2 0 -1 -1 1 1 -0 -1 -4 -0 1 -2 1 2 1 -1 -3 -0 1 0 -2 1 2 1 0 2 1 -2 2 1 2 0 -2 3 0 0 2 2 0 2 -4 1 -3
-3 -4 1 1 0 2 2 4 1 1 -0 3 2 0 0 -2 1 -1 -1 2 1 -0 1 -0 2 3 1 -1 1 -0 3 3 -1 1 -2 -4 3 3 1 1 3 2 -0
-2 -3 -5 -1 -2 0 1 1 -1 -3 -2 2 1 0 -1 -1 -0 0 2 -0 -2 1 -2 -0 2 -0 5 -1 1 0 -2 0 2 -2 3 -4 -1 0 4 1 2 1 2
0 -0 2 1 0 0 2 2 3 3 2 1 -1 -0 -1 -2 -0 -1 -1 -2 -3 0 -1 3 -2 2 -1 3 -1 3 1 -2 2 3 3 1 2 2 -4 0 2 -2 1
2 2 2 2 1 -0 -0 0 0 -0 -0 1 1 -0 -2 -1 -3 -2 0 0 -1 2 -2 -0 -0 0 2 2 -1 1 3 -2 4 -2 1 0 2 2 -6 2 2 3 -3
-2 1 0 -1 -1 0 -1 -1 -1 -1 0 0 -1 -1 -1 -1 -3 -2 -2 -2 -2 0 1 -1 1 -0 2 1 -0 -1 2 -1 -1 3 2 2 0 2 1 0 -0 2 -2
3 3 2 1 -1 -1 -1 -0 1 -1 -2 -3 1 1 -0 0 1 1 0 1 -2 -1 -1 0 0 0 0 0 0 2 1 1 3 -1 3 3 4 -0 0 0 0 -0 2
3 2 0 1 -1 -0 -1 0 1 3 -0 -2 -2 -1 1 0 -0 -1 -2 -2 -2 -0 1 0 -1 0 -0 -0 0 1 1 2 3 -5 2 4 2 1 1 -1 -0 1 -0
0 1 1 1 1 -0 -2 -1 2 1 1 1 -2 0 -0 -1 -2 -2 -1 -1 -1 -0 -0 -1 -1 -1 -0 0 1 -0 1 2 3 0 1 1 2 1 -0 1 -1 1 -0
2 2 -1 -2 -2 -1 -1 -2 -3 -0 0 -1 0 -2 -0 1 1 -2 -1 -2 -1 -1 -1 -0 2 0 -1 2 -2 -0 -0 2 -0 5 -1 -0 0 1 1 -2 -0 0 1
1 3 3 -1 -1 -1 -1 -1 -3 0 1 -1 1 -1 -2 -1 -2 -1 -2 -2 -1 -2 -1 -0 -1 -1 0 -1 3 0 3 -2 -4 1 1 2 0 -0 2 1 1 1 1
-0 1 -0 2 3 1 -1 2 -1 -1 -1 -0 0 -1 -1 -2 -1 -1 -1 -1 -0 -0 -1 0 0 1 1 -4 -1 -1 1 -1 -0 3 3 1 2 1 0 1 1 2 2
2 2 2 2 1 1 -3 3 0 1 -1 -0 -0 -2 -1 -2 -1 -1 -1 -0 0 -1 1 0 1 1 -2 -3 -0 0 -1 -1 1 2 1 1 0 0 2 2 0 1 2
2 0 -1 1 -0 -1 -1 1 1 0 -1 -1 -2 -0 0 -2 -1 -1 -1 -2 0 1 1 -2 -0 0 -0 0 -0 -0 -0 -0 -0 0 -0 -0 -1 0 1 -3 -7 -6 -2
2 2 2 1 3 -1 -2 -0 -1 0 -0 -1 0 -2 -1 1 1 -5 -0 -1 0 -2 -1 -1 2 1 1 1 1 1 1 1 -0 -1 -2 -2 -2 -1 -2 -0 -0 1 0
3 2 2 2 1 -0 -0 0 -1 -1 -1 -2 -1 -0 -0 -0 -1 -0 2 0 1 -2 2 0 1 1 2 1 1 -4 -1 0 0 1 -1 -1 -2 1 1 -0 -0 -1 0
-3 4 -2 13 5 0 1 1 2 -1 -2 -2 -1 -0 -0 -0 -2 1 1 1 -1 -2 3 1 1 0 -0 -0 -5 1 0 1 1 3 0 1 0 -0 -0 1 0 1 -0
2 -1 15 -1 1 10 7 7 1 -1 -2 -1 -3 -2 -2 -1 -1 -0 -0 -3 -1 1 2 0 -1 -1 -1 0 0 1 -1 -1 1 -1 0 -1 0 1 -0 -0 -1 -1 -1
1 1 1 1 5 3 3 3 1 0 0 1 -2 -3 -1 -0 -0 1 -2 0 1 -3 3 2 -0 -1 -0 -0 1 2 0 -1 -0 -0 -1 -1 -1 -1 -0 0 -1 -1 -1
1 3 1 -1 1 2 5 3 5 -1 -0 1 1 -1 -1 -2 0 1 1 1 1 -4 -3 -1 -0 -1 1 -0 -1 -1 0 0 1 2 1 -0 -0 -0 1 -0 -1 -1 -1
-1 2 1 1 1 1 0 7 1 -2 2 3 2 1 -0 -1 0 -1 -1 1 0 -1 -1 -0 -1 -0 -0 0 1 1 2 2 1 0 -0 -1 -2 -0 0 1 0 -0 -1
-2 0 0 2 2 0 1 1 4 2 -0 2 3 2 -1 -4 1 0 0 -0 0 -1 0 1 1 2 1 -0 0 0 0 1 0 2 2 0 1 2 1 1 0 -0 0
0 -1 0 1 -0 1 -2 2 0 -1 -2 1 3 2 2 -4 0 1 1 1 -0 1 0 1 1 2 1 2 1 0 0 1 1 1 1 1 0 -0 -0 -0 -0 0 0
1 0 -1 1 -0 -0 -1 1 0 -1 -1 -0 1 2 2 -1 -1 1 -0 0 1 1 -0 1 1 1 1 -0 0 0 1 1 -0 -0 -0 0 1 0 1 1 0 -0 -1
2 1 1 1 -1 -1 -2 2 1 1 2 1 0 2 2 1 -2 -1 -0 1 2 1 1 1 0 1 -0 1 1 0 0 -0 1 0 0 -0 1 -1 -1 -0 -1 -1 -1
2 1 1 -2 -0 -1 -2 -0 0 -1 1 3 1 2 -0 2 1 1 -1 -0 1 3 1 1 1 0 -0 -0 0 0 -0 -0 -0 -1 0 1 -0 -0 -1 -0 -0 0 0
Height
3081 3083 3084 3085 3086 3088 3090 3091 3093 3094 3095 3096 3096 3098 3099 3100 3099 3099 3098 3097 3095 3093 3091 3088 3087 3084 3081 3079 3078 3076 3074 3073 3071 3069 3068 3068 3068 3069 3069 3068 3068 3068 3067
3076 3076 3077 3078 3079 3081 3082 3084 3085 3086 3087 3088 3089 3090 3090 3090 3091 3091 3089 3087 3085 3083 3081 3079 3077 3075 3073 3071 3070 3067 3066 3065 3063 3062 3061 3062 3062 3062 3062 3062 3062 3061 3061
3069 3069 3070 3070 3071 3072 3073 3074 3076 3078 3079 3080 3081 3081 3081 3081 3081 3081 3079 3078 3076 3074 3073 3070 3068 3067 3065 3063 3061 3059 3058 3057 3057 3055 3055 3054 3056 3056 3056 3056 3057 3057 3056
3062 3061 3061 3062 3062 3063 3065 3066 3067 3069 3070 3071 3072 3072 3072 3073 3073 3072 3070 3068 3067 3066 3063 3062 3060 3058 3056 3054 3053 3052 3050 3049 3049 3049 3048 3049 3049 3050 3051 3051 3052 3053 3053
3054 3054 3053 3053 3054 3055 3056 3057 3058 3060 3061 3063 3063 3064 3064 3065 3064 3063 3061 3060 3058 3057 3055 3053 3052 3050 3048 3046 3044 3043 3043 3041 3042 3042 3042 3042 3043 3044 3045 3047 3048 3048 3048
3048 3048 3047 3047 3047 3047 3048 3049 3050 3052 3053 3055 3056 3057 3057 3056 3055 3054 3053 3052 3050 3048 3047 3045 3042 3041 3039 3038 3036 3035 3035 3035 3035 3034 3035 3037 3037 3039 3040 3042 3043 3043 3043
3040 3039 3040 3040 3040 3041 3042 3043 3044 3046 3047 3048 3049 3049 3049 3049 3048 3046 3045 3043 3041 3039 3037 3036 3034 3032 3030 3029 3029 3028 3028 3029 3030 3029 3031 3032 3033 3035 3036 3036 3037 3037 3038
3031 3031 3032 3033 3033 3034 3035 3037 3038 3039 3040 3041 3042 3042 3042 3041 3040 3038 3037 3034 3033 3031 3029 3026 3025 3023 3023 3022 3022 3022 3023 3024 3026 3027 3028 3028 3029 3030 3031 3031 3031 3032 3032
3025 3024 3024 3024 3025 3026 3029 3030 3031 3032 3033 3034 3035 3035 3035 3034 3032 3030 3029 3026 3024 3022 3020 3018 3017 3016 3016 3016 3017 3018 3019 3020 3021 3023 3024 3025 3024 3025 3025 3025 3026 3027 3027
3014 3014 3014 3014 3016 3018 3020 3021 3023 3025 3026 3027 3027 3028 3027 3026 3025 3023 3021 3019 3017 3016 3014 3012 3011 3010 3010 3012 3013 3014 3015 3017 3019 3019 3020 3021 3020 3020 3020 3021 3022 3022 3022
3008 3006 3006 3006 3008 3010 3011 3012 3015 3016 3018 3019 3020 3020 3020 3019 3018 3016 3014 3012 3010 3009 3007 3006 3006 3007 3007 3009 3009 3011 3012 3014 3015 3015 3015 3016 3016 3016 3016 3016 3016 3016 3016
2999 2999 2999 2999 3000 3001 3002 3004 3006 3008 3010 3011 3011 3012 3012 3011 3010 3008 3006 3005 3003 3002 3001 3001 3001 3002 3003 3005 3006 3007 3009 3011 3011 3011 3011 3012 3012 3012 3012 3012 3012 3012 3011
2990 2990 2991 2991 2992 2992 2993 2995 2997 2999 3000 3002 3003 3003 3003 3002 3001 3000 2998 2997 2997 2995 2995 2996 2997 2998 3000 3001 3003 3003 3005 3005 3006 3006 3007 3007 3007 3007 3007 3007 3007 3007 3006
2981 2981 2982 2983 2984 2984 2985 2986 2988 2990 2991 2992 2993 2993 2992 2992 2992 2991 2990 2989 2988 2988 2990 2991 2993 2994 2995 2997 2998 2999 3000 3001 3002 3002 3002 3002 3002 3002 3002 3002 3002 3000 3000
2972 2973 2974 2974 2975 2976 2977 2978 2979 2981 2982 2982 2983 2982 2982 2982 2981 2980 2981 2982 2980 2981 2984 2986 2988 2989 2990 2992 2993 2994 2995 2996 2997 2997 2997 2996 2996 2996 2995 2994 2992 2992 2991
2963 2965 2966 2967 2967 2968 2969 2970 2971 2972 2972 2972 2972 2971 2971 2970 2970 2971 2973 2974 2974 2976 2979 2981 2982 2983 2985 2986 2988 2989 2990 2990 2990 2990 2990 2989 2989 2987 2986 2984 2983 2982 2982
2953 2956 2956 2957 2958 2959 2960 2962 2963 2963 2963 2963 2963 2962 2962 2961 2961 2962 2964 2966 2968 2970 2973 2975 2976 2978 2979 2980 2981 2982 2983 2983 2983 2983 2981 2979 2978 2977 2976 2975 2974 2974 2973
2944 2945 2946 2948 2949 2950 2953 2953 2954 2955 2955 2955 2955 2955 2954 2953 2953 2954 2956 2958 2960 2964 2967 2969 2969 2970 2972 2973 2974 2975 2975 2974 2974 2973 2972 2971 2970 2970 2969 2967 2966 2965 2964
2933 2934 2935 2937 2939 2941 2943 2944 2945 2947 2947 2948 2948 2947 2947 2945 2945 2946 2948 2950 2953 2956 2960 2961 2962 2963 2964 2965 2966 2966 2966 2966 2966 2965 2964 2963 2962 2962 2961 2959 2957 2956 2955
2923 2923 2924 2926 2928 2930 2932 2934 2936 2938 2939 2940 2941 2941 2940 2939 2938 2940 2941 2943 2945 2947 2951 2953 2955 2956 2956 2957 2957 2957 2958 2958 2958 2958 2957 2955 2954 2953 2952 2950 2948 2947 2946
2910 2912 2913 2914 2916 2919 2922 2924 2927 2929 2930 2932 2933 2934 2933 2933 2933 2933 2934 2936 2938 2940 2943 2945 2946 2948 2949 2949 2950 2950 2950 2950 2950 2949 2948 2947 2946 2945 2943 2941 2940 2938 2936
2897 2899 2901 2902 2904 2906 2910 2914 2916 2918 2921 2923 2925 2926 2926 2926 2928 2929 2930 2931 2933 2934 2936 2938 2939 2941 2942 2942 2942 2942 2941 2941 2941 2940 2939 2938 2937 2935 2934 2932 2930 2928 2927
2885 2887 2889 2891 2893 2895 2897 2901 2904 2908 2911 2913 2915 2917 2918 2919 2921 2923 2925 2926 2927 2929 2930 2931 2933 2934 2934 2934 2933 2933 2932 2932 2932 2930 2929 2928 2927 2925 2924 2922 2920 2919 2918
2873 2876 2878 2881 2883 2885 2887 2890 2894 2897 2900 2903 2905 2908 2910 2912 2914 2916 2918 2919 2921 2922 2923 2924 2924 2925 2925 2925 2924 2923 2922 2922 2922 2921 2920 2919 2918 2916 2914 2913 2912 2911 2910
2862 2865 2867 2870 2873 2876 2879 2881 2884 2887 2890 2894 2896 2898 2901 2904 2906 2908 2910 2911 2913 2915 2916 2916 2916 2916 2916 2916 2915 2914 2914 2913 2913 2912 2911 2910 2909 2908 2906 2905 2904 2903 2902
2854 2855 2857 2861 2864 2867 2870 2872 2875 2878 2881 2884 2888 2890 2892 2895 2898 2900 2902 2904 2906 2907 2908 2908 2908 2907 2906 2906 2907 2907 2906 2906 2905 2904 2904 2903 2901 2900 2898 2897 2896 2895 2893